Time,TemperatureF,DewpointF,PressureIn,WindDirection,WindDirectionDegrees,WindSpeedMPH,WindSpeedGustMPH,Humidity,HourlyPrecipIn,Conditions,Clouds,dailyrainin,SoftwareType,DateUTC
2013-02-12 00:01:00,35.0,22.0,-100.00,WSW,245,12.0,27.0,59,0.00,,,-99.99,,2013-02-12 05:01:00,
2013-02-12 00:11:00,34.0,21.0,-100.00,SW,225,17.0,22.0,57,0.00,,,-99.99,,2013-02-12 05:11:00,
2013-02-12 00:21:00,34.0,21.0,-100.00,WSW,240,14.0,24.0,57,0.00,,,-99.99,,2013-02-12 05:21:00,
2013-02-12 00:32:00,34.0,21.0,-100.00,SW,235,14.0,29.0,58,0.00,,,-99.99,,2013-02-12 05:32:00,
2013-02-12 00:42:00,34.0,21.0,-100.00,SW,230,14.0,22.0,58,0.00,,,-99.99,,2013-02-12 05:42:00,
2013-02-12 00:52:00,33.0,21.0,-100.00,SW,235,9.0,22.0,58,0.00,,,-99.99,,2013-02-12 05:52:00,
2013-02-12 01:02:00,33.0,21.0,-100.00,SW,225,9.0,18.0,60,0.00,,,-99.99,,2013-02-12 06:02:00,
2013-02-12 01:12:00,33.0,21.0,-100.00,SW,230,17.0,24.0,59,0.00,,,-99.99,,2013-02-12 06:12:00,
2013-02-12 01:21:00,33.0,21.0,-100.00,SW,220,12.0,19.0,60,0.00,,,-99.99,,2013-02-12 06:21:00,
2013-02-12 01:32:00,33.0,21.0,-100.00,SW,235,7.0,17.0,60,0.00,,,-99.99,,2013-02-12 06:32:00,
2013-02-12 01:42:00,33.0,21.0,-100.00,SW,235,12.0,21.0,60,0.00,,,-99.99,,2013-02-12 06:42:00,
2013-02-12 01:51:00,33.0,21.0,-100.00,SW,235,11.0,22.0,60,0.00,,,-99.99,,2013-02-12 06:51:00,
2013-02-12 02:02:00,33.0,21.0,-100.00,SW,230,9.0,16.0,60,0.00,,,-99.99,,2013-02-12 07:02:00,
2013-02-12 02:11:00,33.0,21.0,-100.00,SW,220,9.0,15.0,61,0.00,,,-99.99,,2013-02-12 07:11:00,
2013-02-12 02:21:00,33.0,21.0,-100.00,WSW,240,7.0,14.0,61,0.00,,,-99.99,,2013-02-12 07:21:00,
2013-02-12 02:32:00,33.0,21.0,-100.00,SW,235,9.0,22.0,62,0.00,,,-99.99,,2013-02-12 07:32:00,
2013-02-12 02:42:00,33.0,21.0,-100.00,SW,230,12.0,17.0,61,0.00,,,-99.99,,2013-02-12 07:42:00,
2013-02-12 02:51:00,33.0,21.0,-100.00,SW,235,7.0,20.0,62,0.00,,,-99.99,,2013-02-12 07:51:00,
2013-02-12 03:01:00,33.0,20.0,-100.00,WSW,240,16.0,21.0,60,0.00,,,-99.99,,2013-02-12 08:01:00,
2013-02-12 03:11:00,33.0,20.0,-100.00,SW,230,14.0,19.0,60,0.00,,,-99.99,,2013-02-12 08:11:00,
2013-02-12 03:21:00,33.0,20.0,-100.00,WSW,240,11.0,17.0,60,0.00,,,-99.99,,2013-02-12 08:21:00,
2013-02-12 03:32:00,33.0,21.0,-100.00,SW,225,9.0,21.0,61,0.00,,,-99.99,,2013-02-12 08:32:00,
2013-02-12 03:42:00,33.0,20.0,-100.00,WSW,250,11.0,16.0,60,0.00,,,-99.99,,2013-02-12 08:42:00,
2013-02-12 03:52:00,33.0,20.0,-100.00,SW,235,9.0,17.0,60,0.00,,,-99.99,,2013-02-12 08:52:00,
2013-02-12 04:02:00,32.0,20.0,-100.00,SW,225,11.0,17.0,61,0.00,,,-99.99,,2013-02-12 09:02:00,
2013-02-12 04:11:00,32.0,21.0,-100.00,SW,235,11.0,16.0,62,0.00,,,-99.99,,2013-02-12 09:11:00,
2013-02-12 04:21:00,32.0,21.0,-100.00,WSW,245,16.0,25.0,63,0.00,,,-99.99,,2013-02-12 09:21:00,
2013-02-12 04:32:00,32.0,21.0,-100.00,WSW,250,14.0,25.0,63,0.00,,,-99.99,,2013-02-12 09:32:00,
2013-02-12 04:42:00,32.0,21.0,-100.00,WSW,250,10.0,18.0,63,0.00,,,-99.99,,2013-02-12 09:42:00,
2013-02-12 04:51:00,32.0,22.0,-100.00,SW,235,9.0,16.0,64,0.00,,,-99.99,,2013-02-12 09:51:00,
2013-02-12 05:01:00,32.0,21.0,-100.00,SW,235,9.0,18.0,63,0.00,,,-99.99,,2013-02-12 10:01:00,
2013-02-12 05:11:00,32.0,20.0,-100.00,SW,235,11.0,22.0,62,0.00,,,-99.99,,2013-02-12 10:11:00,
2013-02-12 05:21:00,32.0,21.0,-100.00,SW,235,7.0,16.0,62,0.00,,,-99.99,,2013-02-12 10:21:00,
2013-02-12 05:32:00,32.0,20.0,-100.00,SW,225,8.0,16.0,62,0.00,,,-99.99,,2013-02-12 10:32:00,
2013-02-12 05:43:00,32.0,20.0,-100.00,SW,235,11.0,18.0,61,0.00,,,-99.99,,2013-02-12 10:43:00,
2013-02-12 05:51:00,32.0,20.0,-100.00,WSW,240,8.0,16.0,61,0.00,,,-99.99,,2013-02-12 10:51:00,
2013-02-12 06:01:00,32.0,20.0,-100.00,WSW,245,9.0,16.0,62,0.00,,,-99.99,,2013-02-12 11:01:00,
2013-02-12 06:11:00,32.0,20.0,-100.00,WSW,245,8.0,16.0,62,0.00,,,-99.99,,2013-02-12 11:11:00,
2013-02-12 06:22:00,32.0,20.0,-100.00,WSW,250,8.0,17.0,62,0.00,,,-99.99,,2013-02-12 11:22:00,
2013-02-12 06:32:00,32.0,20.0,-100.00,SW,235,9.0,14.0,62,0.00,,,-99.99,,2013-02-12 11:32:00,
2013-02-12 06:42:00,32.0,21.0,-100.00,WSW,240,9.0,14.0,63,0.00,,,-99.99,,2013-02-12 11:42:00,
2013-02-12 06:52:00,31.0,20.0,-100.00,WSW,245,11.0,19.0,63,0.00,,,-99.99,,2013-02-12 11:52:00,
2013-02-12 07:02:00,32.0,20.0,-100.00,WSW,250,10.0,16.0,63,0.00,,,-99.99,,2013-02-12 12:02:00,
2013-02-12 07:11:00,32.0,21.0,-100.00,WSW,240,9.0,18.0,63,0.00,,,-99.99,,2013-02-12 12:11:00,
2013-02-12 07:21:00,32.0,21.0,-100.00,WSW,245,9.0,12.0,63,0.00,,,-99.99,,2013-02-12 12:21:00,
2013-02-12 07:32:00,32.0,21.0,-100.00,WSW,250,7.0,16.0,63,0.00,,,-99.99,,2013-02-12 12:32:00,
2013-02-12 07:42:00,32.0,21.0,-100.00,WSW,255,7.0,20.0,64,0.00,,,-99.99,,2013-02-12 12:42:00,
2013-02-12 07:52:00,31.0,21.0,-100.00,WSW,245,8.0,17.0,64,0.00,,,-99.99,,2013-02-12 12:52:00,
2013-02-12 08:02:00,31.0,21.0,-100.00,SW,235,11.0,24.0,64,0.00,,,-99.99,,2013-02-12 13:02:00,
2013-02-12 08:11:00,31.0,20.0,-100.00,WSW,255,16.0,22.0,63,0.00,,,-99.99,,2013-02-12 13:11:00,
2013-02-12 08:22:00,31.0,20.0,-100.00,SW,230,16.0,22.0,63,0.00,,,-99.99,,2013-02-12 13:22:00,
2013-02-12 08:32:00,31.0,20.0,-100.00,WSW,245,12.0,17.0,64,0.00,,,-99.99,,2013-02-12 13:32:00,
2013-02-12 08:42:00,31.0,20.0,-100.00,WSW,250,10.0,21.0,64,0.00,,,-99.99,,2013-02-12 13:42:00,
2013-02-12 08:52:00,31.0,20.0,-100.00,SW,235,12.0,19.0,63,0.00,,,-99.99,,2013-02-12 13:52:00,
2013-02-12 09:01:00,31.0,20.0,-100.00,West,265,13.0,21.0,62,0.00,,,-99.99,,2013-02-12 14:01:00,
2013-02-12 09:12:00,31.0,20.0,-100.00,WSW,240,9.0,17.0,63,0.00,,,-99.99,,2013-02-12 14:12:00,
2013-02-12 09:21:00,31.0,20.0,-100.00,WSW,245,9.0,12.0,62,0.00,,,-99.99,,2013-02-12 14:21:00,
2013-02-12 09:32:00,31.0,20.0,-100.00,SW,235,10.0,16.0,63,0.00,,,-99.99,,2013-02-12 14:32:00,
2013-02-12 09:42:00,31.0,20.0,-100.00,SW,235,9.0,15.0,64,0.00,,,-99.99,,2013-02-12 14:42:00,
2013-02-12 09:52:00,31.0,20.0,-100.00,SW,225,9.0,16.0,62,0.00,,,-99.99,,2013-02-12 14:52:00,
2013-02-12 10:02:00,32.0,20.0,-100.00,SW,235,6.0,15.0,62,0.00,,,-99.99,,2013-02-12 15:02:00,
2013-02-12 10:11:00,31.0,20.0,-100.00,WSW,240,7.0,19.0,62,0.00,,,-99.99,,2013-02-12 15:11:00,
2013-02-12 10:21:00,31.0,20.0,-100.00,SW,235,10.0,16.0,62,0.00,,,-99.99,,2013-02-12 15:21:00,
2013-02-12 10:32:00,31.0,20.0,-100.00,WSW,245,10.0,17.0,62,0.00,,,-99.99,,2013-02-12 15:32:00,
2013-02-12 10:42:00,31.0,20.0,-100.00,WSW,250,10.0,14.0,62,0.00,,,-99.99,,2013-02-12 15:42:00,
2013-02-12 10:52:00,32.0,20.0,-100.00,SW,230,7.0,11.0,62,0.00,,,-99.99,,2013-02-12 15:52:00,
2013-02-12 11:01:00,31.0,20.0,-100.00,SW,235,11.0,15.0,63,0.00,,,-99.99,,2013-02-12 16:01:00,
2013-02-12 11:11:00,32.0,21.0,-100.00,SW,230,11.0,17.0,64,0.00,,,-99.99,,2013-02-12 16:11:00,
2013-02-12 11:22:00,31.0,20.0,-100.00,WSW,245,11.0,15.0,63,0.00,,,-99.99,,2013-02-12 16:22:00,
2013-02-12 11:32:00,32.0,21.0,-100.00,SW,235,7.0,11.0,64,0.00,,,-99.99,,2013-02-12 16:32:00,
2013-02-12 11:42:00,32.0,21.0,-100.00,SW,235,9.0,14.0,65,0.00,,,-99.99,,2013-02-12 16:42:00,
2013-02-12 11:51:00,32.0,22.0,-100.00,SW,220,8.0,14.0,65,0.00,,,-99.99,,2013-02-12 16:51:00,
2013-02-12 12:01:00,32.0,22.0,-100.00,SW,220,6.0,16.0,65,0.00,,,-99.99,,2013-02-12 17:01:00,
2013-02-12 12:12:00,32.0,22.0,-100.00,SW,235,7.0,13.0,64,0.00,,,-99.99,,2013-02-12 17:12:00,
2013-02-12 12:21:00,32.0,22.0,-100.00,WSW,250,9.0,12.0,65,0.00,,,-99.99,,2013-02-12 17:21:00,
2013-02-12 12:32:00,33.0,22.0,-100.00,WSW,240,6.0,10.0,65,0.00,,,-99.99,,2013-02-12 17:32:00,
2013-02-12 12:42:00,33.0,21.0,-100.00,WSW,250,8.0,12.0,63,0.00,,,-99.99,,2013-02-12 17:42:00,
2013-02-12 12:52:00,33.0,21.0,-100.00,SW,225,4.0,9.0,61,0.00,,,-99.99,,2013-02-12 17:52:00,
2013-02-12 13:02:00,33.0,21.0,-100.00,WSW,255,7.0,10.0,61,0.00,,,-99.99,,2013-02-12 18:02:00,
2013-02-12 13:11:00,33.0,22.0,-100.00,SW,235,9.0,12.0,62,0.00,,,-99.99,,2013-02-12 18:11:00,
2013-02-12 13:23:00,33.0,22.0,-100.00,WSW,240,7.0,12.0,62,0.00,,,-99.99,,2013-02-12 18:23:00,
2013-02-12 13:32:00,33.0,21.0,-100.00,SW,235,7.0,14.0,61,0.00,,,-99.99,,2013-02-12 18:32:00,
2013-02-12 13:41:00,33.0,21.0,-100.00,WSW,240,10.0,19.0,61,0.00,,,-99.99,,2013-02-12 18:41:00,
2013-02-12 13:51:00,33.0,21.0,-100.00,WSW,255,9.0,14.0,60,0.00,,,-99.99,,2013-02-12 18:51:00,
2013-02-12 14:02:00,33.0,21.0,-100.00,WSW,245,6.0,16.0,60,0.00,,,-99.99,,2013-02-12 19:02:00,
2013-02-12 14:11:00,33.0,21.0,-100.00,West,265,7.0,12.0,60,0.00,,,-99.99,,2013-02-12 19:11:00,
2013-02-12 14:21:00,33.0,22.0,-100.00,WSW,245,7.0,12.0,61,0.00,,,-99.99,,2013-02-12 19:21:00,
2013-02-12 14:32:00,33.0,22.0,-100.00,WSW,255,7.0,12.0,61,0.00,,,-99.99,,2013-02-12 19:32:00,
2013-02-12 14:41:00,33.0,22.0,-100.00,WSW,245,4.0,9.0,61,0.00,,,-99.99,,2013-02-12 19:41:00,
2013-02-12 14:51:00,34.0,22.0,-100.00,WSW,245,4.0,8.0,59,0.00,,,-99.99,,2013-02-12 19:51:00,
2013-02-12 15:01:00,34.0,22.0,-100.00,WSW,255,4.0,7.0,60,0.00,,,-99.99,,2013-02-12 20:01:00,
2013-02-12 15:11:00,34.0,22.0,-100.00,WSW,250,6.0,7.0,60,0.00,,,-99.99,,2013-02-12 20:11:00,
2013-02-12 15:21:00,34.0,22.0,-100.00,WSW,240,4.0,9.0,61,0.00,,,-99.99,,2013-02-12 20:21:00,
2013-02-12 15:32:00,34.0,22.0,-100.00,WSW,250,7.0,11.0,62,0.00,,,-99.99,,2013-02-12 20:32:00,
2013-02-12 15:41:00,34.0,22.0,-100.00,SW,235,6.0,12.0,61,0.00,,,-99.99,,2013-02-12 20:41:00,
2013-02-12 15:52:00,34.0,22.0,-100.00,SW,230,8.0,11.0,62,0.00,,,-99.99,,2013-02-12 20:52:00,
2013-02-12 16:02:00,34.0,22.0,-100.00,WSW,240,11.0,12.0,61,0.00,,,-99.99,,2013-02-12 21:02:00,
2013-02-12 16:11:00,35.0,22.0,-100.00,SW,235,7.0,11.0,60,0.00,,,-99.99,,2013-02-12 21:11:00,
2013-02-12 16:21:00,34.0,22.0,-100.00,WSW,245,7.0,12.0,60,0.00,,,-99.99,,2013-02-12 21:21:00,
2013-02-12 16:32:00,35.0,22.0,-100.00,WSW,250,5.0,9.0,59,0.00,,,-99.99,,2013-02-12 21:32:00,
2013-02-12 16:42:00,35.0,22.0,-100.00,SW,225,4.0,9.0,59,0.00,,,-99.99,,2013-02-12 21:42:00,
2013-02-12 16:51:00,35.0,22.0,-100.00,NW,310,1.0,6.0,58,0.00,,,-99.99,,2013-02-12 21:51:00,
2013-02-12 17:01:00,36.0,23.0,-100.00,West,265,1.0,6.0,58,0.00,,,-99.99,,2013-02-12 22:01:00,
2013-02-12 17:12:00,36.0,22.0,-100.00,West,270,2.0,6.0,57,0.00,,,-99.99,,2013-02-12 22:12:00,
2013-02-12 17:21:00,36.0,22.0,-100.00,SW,220,4.0,6.0,57,0.00,,,-99.99,,2013-02-12 22:21:00,
2013-02-12 17:32:00,35.0,22.0,-100.00,West,280,3.0,7.0,57,0.00,,,-99.99,,2013-02-12 22:32:00,
2013-02-12 17:42:00,35.0,22.0,-100.00,SW,235,4.0,6.0,57,0.00,,,-99.99,,2013-02-12 22:42:00,
2013-02-12 17:51:00,35.0,22.0,-100.00,SW,235,3.0,7.0,58,0.00,,,-99.99,,2013-02-12 22:51:00,
2013-02-12 18:01:00,35.0,22.0,-100.00,West,260,1.0,6.0,58,0.00,,,-99.99,,2013-02-12 23:01:00,
2013-02-12 18:11:00,35.0,22.0,-100.00,WSW,250,1.0,4.0,59,0.00,,,-99.99,,2013-02-12 23:11:00,
2013-02-12 18:21:00,35.0,22.0,-100.00,NE,50,0.0,3.0,59,0.00,,,-99.99,,2013-02-12 23:21:00,
2013-02-12 18:32:00,34.0,22.0,-100.00,NE,40,1.0,4.0,61,0.00,,,-99.99,,2013-02-12 23:32:00,
2013-02-12 18:42:00,33.0,22.0,-100.00,NNE,25,1.0,5.0,63,0.00,,,-99.99,,2013-02-12 23:42:00,
2013-02-12 18:52:00,33.0,22.0,-100.00,NE,55,1.0,4.0,64,0.00,,,-99.99,,2013-02-12 23:52:00,
2013-02-12 19:02:00,32.0,22.0,-100.00,NE,45,0.0,4.0,66,0.00,,,-99.99,,2013-02-13 00:02:00,
2013-02-12 19:11:00,30.0,21.0,-100.00,NNE,30,0.0,3.0,68,0.00,,,-99.99,,2013-02-13 00:11:00,
2013-02-12 19:21:00,30.0,21.0,-100.00,North,0,1.0,2.0,70,0.00,,,-99.99,,2013-02-13 00:21:00,
2013-02-12 19:32:00,29.0,21.0,-100.00,North,10,1.0,4.0,70,0.00,,,-99.99,,2013-02-13 00:32:00,
2013-02-12 19:42:00,29.0,21.0,-100.00,NNE,20,0.0,3.0,72,0.00,,,-99.99,,2013-02-13 00:42:00,
2013-02-12 19:52:00,29.0,22.0,-100.00,NE,35,1.0,3.0,72,0.00,,,-99.99,,2013-02-13 00:52:00,
2013-02-12 20:01:00,29.0,22.0,-100.00,NE,50,2.0,6.0,72,0.00,,,-99.99,,2013-02-13 01:01:00,
2013-02-12 20:11:00,29.0,21.0,-100.00,NE,40,0.0,5.0,72,0.00,,,-99.99,,2013-02-13 01:11:00,
2013-02-12 20:21:00,29.0,21.0,-100.00,NE,55,0.0,2.0,73,0.00,,,-99.99,,2013-02-13 01:21:00,
2013-02-12 20:31:00,29.0,22.0,-100.00,NE,55,0.0,3.0,73,0.00,,,-99.99,,2013-02-13 01:31:00,
2013-02-12 20:42:00,28.0,21.0,-100.00,NNW,345,0.0,1.0,73,0.00,,,-99.99,,2013-02-13 01:42:00,
2013-02-12 20:51:00,28.0,21.0,-100.00,North,355,0.0,1.0,73,0.00,,,-99.99,,2013-02-13 01:51:00,
2013-02-12 21:01:00,28.0,21.0,-100.00,North,5,1.0,3.0,74,0.00,,,-99.99,,2013-02-13 02:01:00,
2013-02-12 21:11:00,28.0,21.0,-100.00,North,355,3.0,4.0,75,0.00,,,-99.99,,2013-02-13 02:11:00,
2013-02-12 21:22:00,28.0,21.0,-100.00,North,5,2.0,4.0,74,0.00,,,-99.99,,2013-02-13 02:22:00,
2013-02-12 21:32:00,28.0,21.0,-100.00,North,5,4.0,6.0,75,0.00,,,-99.99,,2013-02-13 02:32:00,
2013-02-12 21:41:00,28.0,21.0,-100.00,NNE,15,2.0,3.0,75,0.00,,,-99.99,,2013-02-13 02:41:00,
2013-02-12 21:52:00,28.0,21.0,-100.00,North,0,2.0,4.0,75,0.00,,,-99.99,,2013-02-13 02:52:00,
2013-02-12 22:01:00,28.0,21.0,-100.00,North,355,2.0,4.0,76,0.00,,,-99.99,,2013-02-13 03:01:00,
2013-02-12 22:11:00,28.0,21.0,-100.00,North,350,2.0,4.0,76,0.00,,,-99.99,,2013-02-13 03:11:00,
2013-02-12 22:21:00,28.0,21.0,-100.00,North,355,0.0,2.0,76,0.00,,,-99.99,,2013-02-13 03:21:00,
2013-02-12 22:32:00,28.0,21.0,-100.00,North,0,0.0,2.0,76,0.00,,,-99.99,,2013-02-13 03:32:00,
2013-02-12 22:42:00,28.0,21.0,-100.00,NNW,345,1.0,2.0,77,0.00,,,-99.99,,2013-02-13 03:42:00,
2013-02-12 22:51:00,27.0,21.0,-100.00,NE,40,0.0,2.0,77,0.00,,,-99.99,,2013-02-13 03:51:00,
2013-02-12 23:01:00,26.0,20.0,-100.00,North,355,1.0,4.0,77,0.00,,,-99.99,,2013-02-13 04:01:00,
2013-02-12 23:11:00,26.0,21.0,-100.00,North,350,0.0,1.0,79,0.00,,,-99.99,,2013-02-13 04:11:00,
2013-02-12 23:21:00,26.0,20.0,-100.00,North,0,0.0,0.0,79,0.00,,,-99.99,,2013-02-13 04:21:00,
2013-02-12 23:32:00,26.0,20.0,-100.00,North,10,0.0,0.0,80,0.00,,,-99.99,,2013-02-13 04:32:00,
2013-02-12 23:41:00,25.0,20.0,-100.00,SSW,195,0.0,1.0,80,0.00,,,-99.99,,2013-02-13 04:41:00,
2013-02-12 23:51:00,25.0,20.0,-100.00,North,0,0.0,3.0,81,0.00,,,-99.99,,2013-02-13 04:51:00,